EHI
0 3 7 7 7 8 7 4 3 4 4 2 0 0 0 0 0 0 0 0 0 0 0 0 0 0 0 0 0 0 0 0 0 0 0 0 0 0 0 0 0 0 0
1 3 6 7 7 8 7 5 3 3 3 2 1 0 0 0 0 0 0 0 0 0 0 0 0 0 0 0 0 0 0 0 0 0 0 0 0 0 0 0 0 0 0
1 3 5 7 8 8 7 5 3 3 3 2 1 0 0 0 1 0 0 0 0 0 0 0 0 0 0 0 0 0 0 0 0 0 0 0 0 0 0 0 0 1 1
2 4 5 7 9 9 7 5 3 2 2 1 0 0 0 0 0 0 0 0 0 0 0 0 0 0 0 0 0 0 0 0 0 0 0 0 0 0 0 0 0 0 0
2 4 6 8 10 9 7 5 4 2 0 0 0 0 0 0 0 0 0 0 0 0 0 0 0 0 0 0 0 0 0 0 0 0 0 0 0 0 0 0 0 0 0
1 3 6 9 9 9 8 6 4 2 0 0 0 0 1 1 1 1 0 0 0 0 0 0 0 0 0 0 0 0 0 0 0 0 0 0 0 0 0 0 0 0 0
0 1 4 8 8 8 7 6 6 3 1 1 1 0 1 2 2 1 0 0 0 0 0 0 0 0 0 0 0 0 0 0 0 0 0 0 0 0 0 0 0 0 0
1 1 3 5 6 6 5 6 7 5 2 2 2 1 1 2 2 1 0 1 0 0 0 0 0 0 0 0 0 0 0 0 0 0 0 0 0 0 0 0 0 0 0
3 2 2 2 3 3 3 4 5 4 2 1 2 1 1 3 2 1 0 0 0 0 0 0 0 0 0 0 0 0 0 0 0 0 0 0 0 0 0 0 0 0 0
3 3 2 1 1 1 1 1 2 2 1 0 1 2 2 2 2 1 0 0 0 0 0 0 0 0 0 0 0 0 0 0 0 0 0 0 0 0 0 0 0 0 0
1 2 2 2 2 1 1 0 0 0 0 1 2 3 2 1 1 0 0 0 0 0 0 0 0 0 0 0 0 0 0 0 0 0 0 0 0 0 0 0 0 0 0
0 1 2 4 4 3 2 1 1 1 1 1 2 3 2 1 0 0 0 0 0 0 0 0 0 0 0 0 0 0 0 0 0 0 0 0 0 0 0 0 0 0 0
0 0 1 4 4 3 2 2 3 4 3 2 3 3 2 2 0 0 0 0 0 0 0 0 0 0 0 0 0 0 0 0 0 0 0 0 0 0 0 0 0 0 0
0 0 1 2 2 1 1 1 2 4 4 4 4 3 2 1 0 0 0 0 0 0 0 0 0 0 0 0 0 0 0 0 0 0 0 0 0 0 0 0 0 0 0
0 0 1 1 1 0 0 0 1 3 3 4 4 3 1 1 1 0 0 0 0 0 0 0 0 0 0 0 0 0 0 0 0 0 0 0 0 0 0 0 0 0 0
0 0 0 0 0 0 0 0 2 2 2 2 2 1 1 2 2 1 0 0 0 0 0 0 0 0 0 0 0 0 0 0 0 0 0 0 0 0 0 0 0 0 0
0 0 0 0 0 0 0 0 1 2 2 2 1 0 1 2 2 1 0 0 0 0 0 0 0 0 0 0 0 0 0 0 0 0 0 0 0 0 0 0 0 0 0
0 0 0 0 0 0 0 0 0 1 1 2 1 1 0 1 1 0 0 0 0 0 0 0 0 0 0 0 0 0 0 0 0 0 0 0 0 0 0 0 0 0 0
0 0 0 0 0 0 0 0 0 0 0 1 2 2 1 0 0 0 0 0 0 0 0 0 0 0 0 0 0 0 0 0 0 0 0 0 0 0 0 0 0 0 0
0 0 0 0 0 0 0 0 0 0 0 0 1 2 2 1 0 0 0 0 0 0 0 0 0 0 0 0 0 0 0 0 0 0 0 0 0 0 0 0 0 0 0
0 0 0 0 0 0 1 0 0 0 0 0 0 1 1 1 0 0 0 0 0 0 0 0 0 0 0 0 0 0 0 0 0 0 0 0 0 0 0 0 0 0 0
0 0 0 0 0 0 0 0 0 0 0 0 0 0 0 0 0 0 0 0 0 0 0 0 0 0 0 0 0 0 0 0 0 0 0 0 0 0 0 0 0 0 0
0 0 0 0 0 0 0 0 0 0 0 0 0 0 0 0 0 0 0 0 0 0 0 0 0 0 0 0 0 0 0 0 0 0 0 0 0 0 0 0 0 0 0
0 0 0 0 0 0 0 0 0 0 0 0 0 0 0 0 0 0 0 0 0 0 0 0 0 0 0 0 0 0 0 0 0 0 0 0 0 0 0 0 0 0 0
0 0 0 0 0 0 0 0 0 0 0 0 0 0 0 0 0 0 0 0 0 0 0 0 0 0 0 0 0 0 0 0 0 0 0 0 0 0 0 0 0 0 0
0 0 0 0 0 0 0 0 0 0 0 0 0 0 0 0 0 0 0 0 0 0 0 0 0 0 0 0 0 0 0 0 0 0 0 0 0 0 0 0 0 0 0
Wind_Speed
3 4 5 4 6 6 7 8 8 9 10 10 11 11 11 10 10 10 10 11 11 11 11 11 11 12 13 13 13 13 13 13 13 13 13 13 13 13 13 11 10 11 14
3 5 6 5 6 6 7 8 9 9 9 10 10 10 10 10 10 10 10 10 10 11 11 11 11 12 12 12 12 13 13 13 12 11 10 11 12 12 12 11 10 10 13
4 5 7 6 6 7 7 8 9 9 9 9 10 10 10 10 10 10 10 10 10 10 11 11 11 11 12 12 12 12 12 12 11 8 5 8 10 11 12 11 11 12 12
4 5 6 6 7 7 7 8 9 9 9 9 9 9 9 9 9 9 10 10 10 10 10 10 11 11 11 11 11 11 11 10 8 4 5 7 8 10 10 11 11 11 12
4 4 6 6 7 7 7 8 9 9 9 9 9 9 9 9 9 9 9 9 9 9 9 9 10 10 10 10 10 10 10 9 6 4 7 6 7 9 10 10 10 10 10
4 4 6 5 7 7 7 8 8 9 9 9 9 8 8 8 8 8 9 9 9 9 9 9 9 9 9 9 9 9 8 6 4 6 6 6 6 8 9 9 10 10 10
4 4 5 5 6 7 7 7 8 8 8 8 8 8 8 8 8 8 8 8 8 8 8 8 8 8 8 8 8 8 7 3 3 5 5 5 7 7 8 9 9 10 9
3 3 4 4 4 6 6 7 7 8 8 8 8 8 7 7 8 8 8 8 8 8 8 8 7 7 7 7 7 7 5 2 3 5 5 5 6 6 7 8 8 8 8
3 3 3 4 4 6 6 6 6 7 8 7 7 7 7 7 7 7 7 7 7 7 7 7 7 6 6 6 7 6 4 1 2 3 4 4 6 6 6 7 7 7 7
2 2 2 3 3 4 6 6 6 6 7 7 6 6 6 6 6 6 6 6 6 6 6 6 6 6 6 6 6 5 3 2 2 3 2 4 5 5 5 5 5 5 6
2 1 1 2 3 3 4 6 6 6 6 6 6 6 5 4 5 5 5 5 5 5 6 6 6 5 5 5 5 3 2 2 2 1 2 4 3 3 4 4 4 5 5
1 1 1 1 1 2 2 4 4 4 4 4 4 5 3 3 3 3 5 4 4 4 5 5 5 4 3 3 4 4 2 2 2 1 2 3 2 2 2 2 2 4 4
1 1 1 1 0 1 2 2 2 2 3 3 3 3 3 3 2 2 2 3 3 3 3 4 4 3 2 2 2 2 2 1 1 1 2 2 1 2 2 2 1 3 4
1 0 1 1 1 0 1 2 2 2 2 2 2 2 2 2 2 2 1 2 2 2 2 2 2 3 3 3 3 3 3 2 1 1 2 1 2 2 2 3 2 2 4
1 0 0 1 1 1 1 1 2 2 2 2 2 2 2 2 2 2 1 1 1 1 2 2 2 3 3 3 3 3 3 3 3 2 1 2 2 3 3 3 3 3 3
2 1 1 1 1 1 1 1 1 2 2 2 2 2 2 2 2 2 2 1 1 1 2 2 3 3 2 2 3 3 3 3 3 3 2 2 2 2 4 4 4 3 3
2 2 2 2 2 2 1 2 1 2 2 2 1 1 1 2 2 2 2 2 1 1 2 2 2 2 2 2 3 3 3 3 3 3 3 2 2 2 3 4 4 3 3
2 2 2 2 3 3 2 2 2 1 2 2 1 1 1 1 2 2 2 1 1 1 2 2 2 2 2 3 3 2 2 2 3 3 3 3 2 2 2 1 2 2 2
2 3 3 3 3 3 3 2 2 2 1 1 1 1 1 1 1 2 1 1 1 2 2 2 2 2 2 2 2 2 2 2 2 3 3 3 3 2 2 2 1 1 2
2 2 3 3 3 3 3 3 2 2 2 1 1 1 0 1 1 1 1 2 1 1 2 2 2 2 2 1 2 2 2 2 2 3 3 2 2 2 3 2 2 2 2
1 2 3 3 3 3 3 2 2 2 2 1 1 1 1 1 0 1 1 2 1 1 2 2 2 2 2 1 2 2 2 3 3 3 2 2 2 2 3 3 3 2 2
1 2 3 4 4 4 2 2 2 2 1 1 1 1 1 1 0 0 0 1 1 2 2 2 1 2 1 2 2 2 2 4 4 3 3 3 3 2 3 3 3 3 3
2 2 1 2 3 3 3 2 2 2 2 1 1 1 1 1 1 0 1 1 1 1 2 2 3 3 2 2 2 2 2 3 1 3 4 3 3 3 2 3 3 3 4
2 1 1 2 2 2 3 3 4 3 3 2 1 1 2 2 1 1 2 2 2 2 2 2 2 3 3 3 2 3 3 2 2 2 3 3 3 4 4 3 4 4 4
1 1 1 1 2 2 2 3 3 3 2 2 2 2 2 2 2 2 2 2 2 3 3 3 3 3 2 3 3 2 3 3 4 3 3 2 3 3 3 4 4 4 4
0 1 1 1 1 2 1 2 2 2 2 2 2 3 3 2 2 2 2 2 3 3 3 3 3 4 3 4 3 2 3 3 3 4 4 4 3 3 4 4 4 3 3
Wind_Direction
148 148 141 151 141 130 128 126 123 120 120 118 115 113 111 107 104 100 98 97 94 92 93 94 94 96 95 94 92 90 89 87 87 88 88 87 86 86 84 83 88 86 82
149 154 141 153 144 134 132 131 126 122 120 119 117 115 112 110 107 104 102 99 96 93 93 92 92 94 94 93 92 91 90 87 86 88 93 94 89 88 85 77 72 83 84
140 146 147 149 143 134 133 132 129 125 123 122 120 119 116 113 110 107 104 102 99 95 95 94 94 96 95 94 94 92 91 90 88 88 103 101 95 91 90 87 85 88 87
137 142 146 137 139 134 135 136 132 130 127 125 122 122 119 116 112 111 109 106 102 99 98 97 97 98 98 96 95 93 92 91 90 100 100 95 97 96 95 92 91 90 88
134 135 127 133 136 132 133 136 134 132 131 129 126 123 121 118 115 113 112 110 106 103 101 99 99 101 101 100 98 96 94 91 93 98 89 93 97 97 97 95 94 94 91
132 131 122 128 140 136 136 138 131 133 134 132 129 126 124 122 118 115 113 110 108 107 106 104 103 103 104 103 103 101 97 96 120 97 94 96 99 100 102 100 99 98 96
130 128 130 124 138 138 139 139 136 134 135 133 132 129 127 126 122 116 113 112 111 112 111 109 108 106 109 109 107 104 100 84 99 99 97 94 93 102 106 105 103 100 97
131 130 126 121 133 142 139 139 140 139 135 131 132 130 129 127 124 122 119 116 115 115 114 113 110 108 111 111 109 106 98 98 114 105 102 98 91 103 109 107 105 102 98
132 133 131 142 141 141 134 134 133 132 134 128 126 122 120 120 124 124 122 122 121 121 118 116 113 111 111 113 111 107 97 21 133 108 105 98 95 103 108 109 109 108 106
103 137 145 151 154 158 158 140 134 129 128 125 121 117 116 122 125 120 126 121 123 124 121 120 119 118 112 114 113 109 108 200 131 121 116 99 95 108 108 113 117 117 113
57 59 150 160 164 168 168 155 151 139 129 131 127 119 134 146 143 140 125 118 125 130 128 125 124 123 122 121 119 125 177 173 137 123 112 91 109 121 121 119 122 131 128
67 45 62 147 176 176 170 166 167 157 150 152 144 147 153 146 131 124 113 118 128 132 135 130 131 146 171 150 144 177 186 182 165 149 108 94 148 147 138 144 138 153 150
159 58 48 51 125 165 172 163 162 158 157 154 146 152 152 141 134 137 137 139 147 155 157 150 165 174 181 163 171 183 191 199 197 176 126 111 189 183 181 179 176 176 174
157 95 46 72 62 104 176 164 160 155 154 149 156 156 156 149 152 150 154 152 166 178 184 186 189 182 191 186 187 188 192 207 212 204 129 131 233 230 223 214 217 209 190
204 182 251 83 93 76 95 160 145 153 157 156 158 166 162 161 167 165 163 166 177 189 196 199 203 194 200 197 197 201 206 211 213 212 164 146 248 256 246 230 225 228 207
230 219 198 170 145 123 135 132 146 145 153 154 154 172 175 171 174 173 163 168 183 208 209 208 208 208 212 207 208 211 220 224 228 223 217 178 192 256 256 242 231 232 222
232 213 193 190 169 164 165 135 128 140 136 139 141 155 170 174 178 174 173 176 189 217 217 213 207 218 217 208 212 218 224 232 234 230 225 225 201 204 253 257 245 232 234
228 210 196 188 171 168 168 153 129 121 127 134 133 129 146 164 167 170 174 186 201 207 206 204 209 217 216 211 212 214 226 229 235 233 224 226 231 222 204 232 253 252 244
225 206 195 186 175 164 159 151 130 118 110 117 140 147 186 187 176 157 157 168 198 205 208 203 213 219 223 218 219 212 216 220 222 228 227 228 237 243 224 152 168 278 277
218 201 193 180 175 164 158 147 134 125 108 83 102 107 133 196 185 168 167 172 193 204 210 210 209 221 223 212 218 222 223 222 223 231 236 237 233 236 241 240 227 207 243
217 201 192 176 172 169 164 168 160 152 133 106 78 91 108 101 134 187 185 186 199 205 217 223 214 210 199 185 201 211 215 223 227 232 236 241 241 241 244 247 254 254 231
213 210 194 183 176 172 169 167 166 146 138 129 133 116 94 97 114 168 151 222 221 222 207 207 217 223 201 201 212 209 221 213 214 223 225 234 245 240 241 244 250 253 262
223 205 173 176 173 169 161 153 149 143 141 149 165 171 185 179 175 186 225 229 227 228 228 222 216 217 214 209 229 230 229 228 224 202 220 229 236 242 248 250 254 259 261
248 218 170 138 134 147 164 168 170 175 175 192 208 208 203 202 199 212 236 232 229 231 232 231 233 230 222 213 221 247 266 278 243 232 213 224 243 248 250 249 248 247 255
248 201 171 135 125 125 147 166 184 188 189 194 208 217 216 209 218 219 240 235 228 229 232 232 227 233 231 231 224 227 235 248 250 251 248 239 246 243 253 256 250 248 250
199 156 170 151 126 121 139 169 182 188 188 198 222 221 220 218 220 226 234 240 240 238 231 231 232 231 234 234 230 231 233 232 232 240 252 260 261 253 255 252 251 254 257